K5PCJ Weather Reports


time (UTC)temp
F
wind
direction
speed
knots
gust
knots
rain 1hr
in
rain 24hr
in
rain mn
in
humidity
%
barometer
mb
20260509224043 89 0 0.0 0.9 0.00 0.05 0.00 70 1008.2
20260509223544 89 0 0.0 0.9 0.00 0.05 0.00 66 1008.4
20260509223053 89 0 0.0 0.9 0.00 0.05 0.00 67 1008.2
20260509222547 90 103 0.0 0.9 0.00 0.05 0.00 68 1008.2
20260509222043 90 0 0.0 0.9 0.00 0.05 0.00 66 1008.2
20260509221550 92 103 0.0 0.0 0.00 0.05 0.00 61 1008.2
20260509221044 91 0 0.0 0.9 0.00 0.05 0.00 61 1008.1
20260509220543 90 0 0.0 1.7 0.00 0.05 0.00 62 1008.1
20260509220054 90 0 0.0 1.7 0.00 0.05 0.00 66 1008.2
20260509215543 90 0 0.9 1.7 0.00 0.06 0.00 64 1008.2
20260509215044 91 91 0.0 0.9 0.00 0.06 0.00 64 1008.1
20260509214554 90 103 0.0 2.6 0.00 0.06 0.00 66 1008.1
20260509214046 90 0 0.0 2.6 0.00 0.06 0.00 66 1008.1
20260509213543 90 103 0.9 2.6 0.00 0.06 0.00 65 1008.1
20260509213111 90 124 0.0 1.7 0.00 0.06 0.00 65 1008.1
20260509212544 90 121 0.0 1.7 0.00 0.06 0.00 66 1008.1
20260509212043 89 148 0.0 1.7 0.00 0.06 0.00 66 1008.1
20260509211552 89 0 0.0 1.7 0.00 0.06 0.00 67 1008.1
20260509211044 90 255 0.0 1.7 0.00 0.06 0.00 67 1008.2
20260509210544 90 77 0.0 0.9 0.00 0.06 0.00 68 1008.4
20260509210055 89 77 0.0 1.7 0.00 0.06 0.00 69 1008.3
20260509205547 89 226 0.0 3.5 0.00 0.06 0.00 68 1008.5
20260509205044 89 74 0.0 3.5 0.00 0.06 0.00 68 1008.5
20260509204550 89 0 0.0 1.7 0.00 0.06 0.00 69 1008.5
20260509204044 89 140 0.9 2.6 0.00 0.06 0.00 69 1008.6
20260509203543 89 293 0.0 2.6 0.00 0.06 0.00 67 1008.7
20260509203053 89 45 0.0 2.6 0.00 0.06 0.00 68 1008.7
20260509202543 88 0 0.0 2.6 0.00 0.06 0.00 70 1008.8
20260509202044 88 69 0.0 2.6 0.00 0.06 0.00 71 1008.9
20260509201548 87 150 0.9 2.6 0.00 0.06 0.00 73 1008.9
20260509201043 87 108 0.0 2.6 0.00 0.06 0.00 74 1008.9
20260509200545 87 264 0.9 2.6 0.00 0.06 0.00 73 1009.0
20260509200104 87 124 0.0 0.9 0.00 0.06 0.00 75 1009.1
20260509195544 87 123 0.0 0.9 0.00 0.06 0.00 73 1009.1
20260509195045 87 84 0.0 0.9 0.00 0.06 0.00 76 1009.2
20260509194557 85 0 0.0 0.9 0.00 0.06 0.00 78 1009.2
20260509194044 85 0 0.0 0.9 0.00 0.06 0.00 78 1009.3
20260509193544 84 61 0.0 0.9 0.00 0.06 0.00 78 1009.3
20260509193047 84 0 0.0 0.9 0.00 0.06 0.00 81 1009.4
20260509192543 83 0 0.0 0.0 0.00 0.06 0.00 81 1009.5
20260509192043 83 0 0.0 0.9 0.00 0.06 0.00 81 1009.6
20260509191605 83 0 0.0 0.9 0.00 0.06 0.00 80 1009.7
20260509191045 84 0 0.0 0.0 0.00 0.06 0.00 77 1009.7
20260509190547 85 0 0.0 0.0 0.00 0.06 0.00 78 1009.7
20260509190054 85 0 0.0 0.9 0.00 0.06 0.00 79 1009.7
20260509185544 85 65 0.0 0.9 0.00 0.06 0.00 76 1009.7
20260509185044 86 53 0.0 0.9 0.00 0.06 0.00 77 1009.8
20260509184610 86 0 0.0 0.9 0.00 0.06 0.00 77 1009.9
20260509184044 86 0 0.0 0.9 0.00 0.06 0.00 76 1009.9
20260509183545 86 0 0.0 0.9 0.00 0.06 0.00 76 1009.9
20260509183054 86 53 0.0 2.6 0.00 0.06 0.00 75 1009.9
20260509182543 87 110 0.0 2.6 0.00 0.06 0.00 76 1009.9
20260509182043 87 221 0.0 1.7 0.00 0.06 0.00 74 1010.0
20260509181554 88 98 0.0 1.7 0.00 0.06 0.00 74 1010.2
20260509181043 87 4 0.0 0.9 0.00 0.06 0.00 76 1010.2
20260509180543 86 0 0.0 0.9 0.00 0.06 0.00 78 1010.3
20260509180115 85 0 0.0 1.7 0.00 0.06 0.00 78 1010.4
20260509175547 85 100 0.9 2.6 0.00 0.06 0.00 79 1010.4
20260509175044 86 103 0.0 2.6 0.00 0.06 0.00 77 1010.4
20260509174553 85 0 0.0 2.6 0.00 0.06 0.00 78 1010.4
20260509174049 86 160 0.0 2.6 0.00 0.06 0.00 80 1010.4
20260509173544 85 0 0.0 1.7 0.00 0.06 0.00 79 1010.6
20260509173102 85 0 0.0 1.7 0.00 0.06 0.00 78 1010.6
20260509172544 85 4 0.0 0.9 0.00 0.06 0.00 79 1010.6
20260509172045 84 0 0.0 0.9 0.00 0.06 0.00 80 1010.6
20260509171557 83 0 0.0 0.9 0.00 0.06 0.00 81 1010.7
20260509171047 83 0 0.0 0.9 0.00 0.06 0.00 82 1010.6
20260509170543 82 0 0.0 0.9 0.00 0.06 0.00 82 1010.5
20260509170054 82 0 0.0 0.9 0.00 0.06 0.00 82 1010.4
20260509165545 82 68 0.0 1.7 0.00 0.06 0.00 81 1010.6
20260509165044 82 0 0.0 1.7 0.00 0.06 0.00 83 1010.6
20260509164546 82 97 0.0 1.7 0.00 0.06 0.00 82 1010.6
20260509164046 82 0 0.0 1.7 0.00 0.06 0.00 83 1010.7
20260509163548 82 70 0.0 0.9 0.00 0.06 0.00 83 1010.7
20260509163056 82 0 0.0 0.9 0.00 0.06 0.00 82 1010.6
20260509162545 82 0 0.0 0.9 0.00 0.06 0.00 83 1010.7
20260509162046 82 0 0.0 0.9 0.00 0.06 0.00 83 1010.7
20260509161601 82 0 0.0 0.9 0.00 0.06 0.00 82 1010.8
20260509161045 82 0 0.0 0.9 0.00 0.06 0.00 83 1010.8
20260509160545 81 0 0.0 0.9 0.00 0.06 0.00 84 1010.8
20260509160052 81 0 0.0 0.9 0.00 0.06 0.00 86 1010.7
20260509155544 80 0 0.0 0.9 0.00 0.06 0.00 85 1010.9
20260509155044 80 74 0.0 0.9 0.00 0.06 0.00 87 1010.9
20260509154554 79 0 0.0 0.9 0.00 0.06 0.00 88 1010.8
20260509154045 79 75 0.0 0.9 0.00 0.06 0.00 89 1010.7
20260509153545 78 0 0.0 0.9 0.00 0.06 0.00 90 1010.9
20260509153100 78 0 0.0 0.9 0.00 0.06 0.00 91 1010.8
20260509152545 77 0 0.0 0.0 0.00 0.06 0.00 92 1010.8
20260509152047 76 0 0.0 0.0 0.00 0.06 0.00 92 1010.9
20260509151552 76 0 0.0 0.0 0.00 0.06 0.00 94 1010.9
20260509151049 76 0 0.0 0.0 0.00 0.06 0.00 94 1010.9
20260509150545 75 0 0.0 0.0 0.00 0.06 0.00 94 1011.0
20260509150047 76 0 0.0 0.0 0.00 0.06 0.00 94 1010.9
20260509145545 76 0 0.0 0.0 0.00 0.06 0.00 94 1010.9
20260509145116 75 0 0.0 0.0 0.00 0.06 0.00 94 1010.8
20260509144553 75 0 0.0 0.0 0.00 0.06 0.00 95 1010.8
20260509144044 75 0 0.0 0.0 0.00 0.06 0.00 95 1010.6
20260509143544 75 0 0.0 0.0 0.00 0.06 0.00 95 1010.7
20260509143057 75 0 0.0 0.0 0.00 0.06 0.00 95 1010.4
20260509142544 75 0 0.0 0.0 0.00 0.06 0.00 95 1010.3
20260509142045 75 0 0.0 0.9 0.00 0.06 0.00 95 1010.3
20260509141556 75 0 0.0 0.9 0.00 0.06 0.00 95 1010.2
20260509141046 75 28 0.0 0.9 0.00 0.06 0.00 95 1010.1
20260509140549 75 0 0.0 0.0 0.00 0.06 0.00 95 1010.4
20260509140106 74 0 0.0 0.9 0.00 0.06 0.00 95 1010.5
20260509135545 74 0 0.0 1.7 0.00 0.06 0.00 95 1010.7
20260509135045 74 0 0.0 1.7 0.00 0.06 0.00 96 1010.7
20260509134554 74 79 0.9 1.7 0.00 0.06 0.00 96 1010.5
20260509134048 75 0 0.0 0.0 0.00 0.06 0.00 96 1010.3
20260509133544 74 0 0.0 0.0 0.00 0.06 0.00 96 1010.5
20260509133052 74 0 0.0 0.0 0.00 0.06 0.00 96 1010.7
20260509132543 74 0 0.0 0.0 0.00 0.06 0.00 96 1010.6
20260509132043 74 0 0.0 0.0 0.00 0.06 0.00 96 1010.7
20260509131550 74 0 0.0 0.0 0.00 0.06 0.00 96 1010.8
20260509131043 74 0 0.0 0.0 0.00 0.06 0.00 96 1010.9
20260509130543 74 0 0.0 0.0 0.00 0.06 0.00 96 1010.8
20260509130053 74 0 0.0 0.0 0.00 0.06 0.00 96 1011.0
20260509125543 73 0 0.0 0.0 0.00 0.06 0.00 96 1011.0
20260509125043 73 0 0.0 0.0 0.00 0.06 0.00 96 1010.9
20260509124555 73 0 0.0 0.0 0.00 0.06 0.00 96 1010.9
20260509124043 73 0 0.0 0.0 0.00 0.06 0.00 96 1010.6
20260509123545 73 0 0.0 0.0 0.00 0.06 0.00 96 1010.9
20260509123050 73 0 0.0 0.0 0.00 0.06 0.00 96 1010.9
20260509122544 73 0 0.0 0.0 0.00 0.06 0.00 96 1010.7
20260509122043 73 0 0.0 0.0 0.00 0.06 0.00 96 1010.5
20260509121550 73 0 0.0 0.0 0.00 0.06 0.00 96 1010.4
20260509121048 73 0 0.0 0.0 0.00 0.06 0.00 96 1010.3
20260509120544 73 0 0.0 0.0 0.00 0.06 0.00 96 1010.0
20260509120053 72 0 0.0 0.0 0.00 0.06 0.00 96 1010.1
20260509115543 72 0 0.0 0.0 0.00 0.06 0.00 96 1010.1
20260509115043 73 0 0.0 0.0 0.00 0.06 0.00 96 1009.9
20260509114644 73 0 0.0 0.0 0.00 0.06 0.00 96 1009.8
20260509114043 73 0 0.0 0.0 0.00 0.06 0.00 96 1009.9
20260509113543 73 0 0.0 0.0 0.00 0.06 0.00 96 1010.0
20260509113051 73 0 0.0 0.0 0.00 0.06 0.00 96 1010.2
20260509112544 73 0 0.0 0.0 0.00 0.06 0.00 96 1010.4
20260509112052 73 0 0.0 0.0 0.00 0.06 0.00 96 1010.4
20260509111554 73 0 0.0 0.0 0.00 0.06 0.00 96 1010.3
20260509111043 73 0 0.0 0.0 0.00 0.06 0.00 96 1010.3
20260509110546 73 0 0.0 0.0 0.00 0.06 0.00 96 1010.3
20260509110049 72 0 0.0 0.0 0.00 0.06 0.00 96 1010.2
20260509105543 72 0 0.0 0.0 0.00 0.06 0.00 96 1010.2
20260509105044 72 0 0.0 0.0 0.00 0.06 0.00 96 1010.5
20260509104553 72 0 0.0 0.0 0.00 0.06 0.00 96 1010.5
20260509104043 72 0 0.0 0.0 0.00 0.06 0.00 95 1010.4
20260509103544 72 0 0.0 0.0 0.00 0.06 0.00 95 1010.3
20260509103053 72 0 0.0 0.0 0.00 0.06 0.00 96 1010.0
20260509102545 72 0 0.0 0.0 0.00 0.06 0.00 95 1009.9
20260509102045 72 0 0.0 0.0 0.00 0.06 0.00 95 1009.8
20260509101547 72 0 0.0 0.0 0.00 0.06 0.00 95 1009.9
20260509101045 72 0 0.0 0.0 0.00 0.06 0.00 95 1009.7
20260509100545 72 0 0.0 0.0 0.00 0.06 0.00 95 1009.7
20260509100054 72 0 0.0 0.0 0.00 0.06 0.00 95 1009.5
20260509095548 72 0 0.0 0.0 0.00 0.06 0.00 95 1009.3
20260509095046 72 0 0.0 0.0 0.00 0.06 0.00 95 1009.4
20260509094557 72 0 0.0 0.0 0.00 0.06 0.00 95 1009.4
20260509094044 72 0 0.0 0.0 0.00 0.06 0.00 95 1009.6
20260509093544 72 0 0.0 0.0 0.00 0.06 0.00 95 1009.8
20260509093053 72 0 0.0 0.0 0.00 0.06 0.00 95 1009.8
20260509092548 72 0 0.0 0.0 0.00 0.06 0.00 95 1010.0
20260509092047 72 0 0.0 0.0 0.00 0.06 0.00 95 1010.0
20260509091557 72 0 0.0 0.0 0.00 0.06 0.00 95 1010.0
20260509091045 72 0 0.0 0.0 0.00 0.06 0.00 95 1010.0
20260509090544 72 0 0.0 0.0 0.00 0.06 0.00 95 1009.9
20260509090055 72 0 0.0 0.0 0.00 0.06 0.00 95 1009.8
20260509085548 72 0 0.0 0.0 0.00 0.06 0.00 95 1009.8
20260509085045 72 0 0.0 0.0 0.00 0.06 0.00 95 1009.7
20260509084601 72 0 0.0 0.0 0.00 0.06 0.00 95 1009.7
20260509084045 72 0 0.0 0.0 0.00 0.06 0.00 95 1009.7
20260509083546 72 0 0.0 0.0 0.00 0.06 0.00 95 1009.7
20260509083106 72 0 0.0 0.0 0.00 0.06 0.00 95 1009.9
20260509082544 72 0 0.0 0.0 0.00 0.06 0.00 95 1009.9
20260509082047 72 0 0.0 0.0 0.00 0.06 0.00 95 1009.9
20260509081555 72 0 0.0 0.0 0.00 0.06 0.00 95 1009.9
20260509081045 72 0 0.0 0.0 0.00 0.06 0.00 95 1009.7
20260509080548 72 0 0.0 0.0 0.00 0.06 0.00 95 1009.8
20260509080053 72 0 0.0 0.0 0.00 0.06 0.00 95 1010.0
20260509075544 72 0 0.0 0.0 0.00 0.06 0.00 95 1009.9
20260509075045 72 0 0.0 0.0 0.00 0.06 0.00 95 1010.0
20260509074609 72 0 0.0 0.0 0.00 0.06 0.00 95 1010.1
20260509074044 72 0 0.0 0.0 0.00 0.06 0.00 95 1010.2
20260509073547 72 0 0.0 0.0 0.00 0.06 0.00 95 1010.3
20260509073103 72 0 0.0 0.0 0.00 0.06 0.00 95 1010.3
20260509072545 72 0 0.0 0.0 0.00 0.06 0.00 95 1010.3
20260509072044 72 0 0.0 0.0 0.00 0.06 0.00 95 1010.2
20260509071557 72 0 0.0 0.0 0.00 0.06 0.00 95 1010.3
20260509071045 72 0 0.0 0.0 0.00 0.06 0.00 95 1010.2
20260509070545 72 0 0.0 0.0 0.00 0.06 0.00 95 1010.2
20260509070055 72 0 0.0 0.0 0.00 0.06 0.00 95 1010.2
20260509065546 72 0 0.0 0.0 0.00 0.06 0.00 95 1010.2
20260509065044 72 0 0.0 0.0 0.00 0.06 0.00 95 1010.2
20260509064547 72 0 0.0 0.0 0.00 0.06 0.00 95 1010.2
20260509064045 72 0 0.0 0.0 0.00 0.06 0.00 95 1010.2
20260509063546 72 0 0.0 0.0 0.00 0.06 0.00 95 1010.2
20260509063057 72 0 0.0 0.0 0.00 0.06 0.00 95 1010.2
20260509062545 72 0 0.0 0.0 0.00 0.06 0.00 95 1010.3
20260509062044 72 0 0.0 0.0 0.00 0.06 0.00 95 1010.3
20260509061548 72 0 0.0 0.0 0.00 0.06 0.00 95 1010.3
20260509061044 72 0 0.0 0.0 0.00 0.06 0.00 95 1010.4
20260509060547 72 0 0.0 0.0 0.00 0.06 0.00 95 1010.5
20260509060107 72 0 0.0 0.0 0.00 0.06 0.00 95 1010.6
20260509055545 72 0 0.0 0.0 0.00 0.06 0.00 95 1010.7
20260509055045 72 0 0.0 0.0 0.00 0.06 0.00 95 1010.8
20260509054548 72 0 0.0 0.9 0.00 0.06 0.00 95 1010.7
20260509054044 72 0 0.0 0.9 0.00 0.06 0.00 95 1010.8
20260509053544 72 0 0.0 0.0 0.00 0.06 0.00 95 1010.8
20260509053057 72 0 0.0 0.0 0.00 0.06 0.00 95 1010.8
20260509052544 72 0 0.0 0.0 0.00 0.06 0.00 95 1010.8
20260509052045 72 0 0.0 0.0 0.00 0.06 0.00 95 1010.8
20260509051548 72 0 0.0 0.0 0.00 0.06 0.00 95 1010.6
20260509051044 72 0 0.0 0.0 0.00 0.06 0.00 95 1010.6
20260509050545 72 0 0.0 0.0 0.00 0.06 0.00 95 1010.7
20260509050053 72 0 0.0 0.0 0.00 0.06 0.00 95 1010.9
20260509045547 71 0 0.0 0.0 0.00 0.06 0.06 95 1010.8
20260509045045 71 0 0.0 0.0 0.00 0.06 0.06 95 1011.0
20260509044554 71 0 0.0 0.0 0.00 0.06 0.06 95 1010.9
20260509044045 71 0 0.0 0.0 0.00 0.06 0.06 95 1010.8
20260509043545 71 0 0.0 0.0 0.00 0.06 0.06 95 1010.8
20260509043059 71 0 0.0 0.9 0.00 0.06 0.06 95 1010.8
20260509042545 71 0 0.0 0.9 0.00 0.06 0.06 95 1010.8
20260509042045 71 0 0.0 0.9 0.00 0.06 0.06 95 1010.8
20260509041553 71 0 0.0 0.9 0.00 0.06 0.06 95 1010.8
20260509041045 71 0 0.0 0.9 0.00 0.06 0.06 95 1010.8
20260509040543 71 0 0.0 0.9 0.00 0.06 0.06 95 1010.7
20260509035543 71 0 0.0 0.0 0.00 0.06 0.06 95 1010.7
20260509035045 71 0 0.0 0.0 0.00 0.06 0.06 95 1010.4
20260509034549 71 0 0.0 0.0 0.00 0.06 0.06 95 1010.6
20260509034044 71 0 0.0 0.0 0.00 0.06 0.06 95 1010.6
20260509033545 71 0 0.0 0.9 0.00 0.06 0.06 95 1010.4
20260509033110 71 0 0.0 0.9 0.00 0.06 0.06 94 1010.4
20260509032545 71 0 0.0 0.9 0.00 0.06 0.06 94 1010.3
20260509032044 71 0 0.0 0.9 0.00 0.06 0.06 94 1010.6
20260509031551 71 0 0.0 0.9 0.00 0.06 0.06 94 1010.5
20260509031045 71 0 0.0 0.9 0.00 0.06 0.06 94 1010.4
20260509030544 71 91 0.0 0.9 0.00 0.06 0.06 94 1010.4
20260509030050 71 88 0.0 0.9 0.00 0.06 0.06 94 1010.3
20260509025543 71 0 0.0 0.9 0.00 0.06 0.06 94 1010.2
20260509025046 71 0 0.0 0.9 0.01 0.06 0.06 94 1010.3
20260509024558 71 338 0.0 0.9 0.01 0.06 0.06 94 1010.5
20260509024043 71 0 0.0 0.9 0.01 0.06 0.06 94 1010.2
20260509023548 71 77 0.0 1.7 0.01 0.06 0.06 94 1010.3
20260509023048 71 0 0.0 1.7 0.01 0.06 0.06 94 1010.0
20260509022545 71 0 0.0 0.9 0.01 0.06 0.06 94 1010.0
20260509022045 71 0 0.0 0.9 0.01 0.06 0.06 94 1010.0
20260509021550 71 0 0.0 0.9 0.01 0.06 0.06 94 1010.0
20260509021046 71 0 0.0 0.9 0.01 0.06 0.06 94 1010.1
20260509020544 71 0 0.0 0.9 0.01 0.06 0.06 94 1010.0
20260509015545 71 0 0.0 0.9 0.01 0.06 0.06 94 1010.0
20260509015044 71 88 0.0 0.9 0.00 0.05 0.05 94 1010.1
20260509014549 71 0 0.0 0.9 0.00 0.05 0.05 94 1010.0
20260509014043 71 0 0.0 0.9 0.00 0.05 0.05 94 1010.0
20260509013543 71 0 0.0 0.0 0.00 0.05 0.05 94 1009.9
20260509013049 71 0 0.0 0.0 0.00 0.05 0.05 94 1009.9
20260509012544 71 0 0.0 0.9 0.00 0.05 0.05 94 1009.8
20260509012044 71 0 0.0 0.9 0.00 0.05 0.05 94 1009.8
20260509011559 71 0 0.0 0.9 0.00 0.05 0.05 94 1009.8
20260509011045 71 0 0.0 1.7 0.00 0.05 0.05 94 1009.7
20260509010548 71 0 0.0 1.7 0.00 0.05 0.05 94 1009.7
20260509010101 71 103 0.0 0.9 0.00 0.05 0.05 94 1009.6
20260509005545 71 0 0.0 0.9 0.00 0.05 0.05 93 1009.6
20260509005044 71 0 0.0 0.9 0.00 0.05 0.05 93 1009.7
20260509004600 71 0 0.0 0.9 0.00 0.05 0.05 93 1009.7
20260509004044 71 0 0.0 0.9 0.00 0.05 0.05 93 1009.8
20260509003545 72 0 0.0 0.9 0.00 0.05 0.05 93 1010.0
20260509003059 72 0 0.0 0.9 0.00 0.05 0.05 93 1009.9
20260509002545 72 0 0.0 0.9 0.00 0.05 0.05 93 1009.9
20260509002044 72 0 0.0 0.9 0.00 0.05 0.05 93 1009.9
20260509001550 72 0 0.0 0.9 0.00 0.05 0.05 93 1009.8
20260509001045 72 0 0.0 0.9 0.00 0.05 0.05 93 1009.8
20260509000547 72 0 0.0 0.9 0.01 0.05 0.05 93 1009.8
20260509000053 72 0 0.0 0.9 0.02 0.05 0.05 93 1009.9
20260508235545 72 0 0.0 0.0 0.03 0.05 0.05 93 1009.9
20260508235043 72 0 0.0 0.0 0.03 0.05 0.05 93 1010.1
20260508234552 72 0 0.0 0.0 0.03 0.05 0.05 93 1010.1
20260508234045 72 0 0.0 0.0 0.03 0.05 0.05 93 1009.9
20260508233545 72 0 0.0 0.9 0.03 0.05 0.05 93 1010.2
20260508233048 72 0 0.0 0.9 0.03 0.05 0.05 92 1010.3
20260508232544 72 0 0.0 0.9 0.03 0.05 0.05 92 1010.1
20260508232044 72 0 0.0 0.9 0.03 0.05 0.05 92 1010.0
20260508231551 72 0 0.0 0.9 0.03 0.05 0.05 92 1009.9
20260508231045 72 0 0.0 0.9 0.04 0.05 0.05 92 1009.9
20260508230546 72 0 0.0 1.7 0.03 0.04 0.04 92 1009.8
20260508230055 72 0 0.0 1.7 0.02 0.03 0.03 92 1009.8
20260508225545 72 15 0.0 0.9 0.01 0.02 0.02 92 1009.8
20260508225044 72 0 0.0 0.9 0.01 0.02 0.02 92 1009.8
20260508224553 72 0 0.0 0.9 0.01 0.02 0.02 91 1010.0